Preview of NWS' New Version of Forecast
This preview is not operational and should not be used for support decisions.

Regional Weather Roundup (RWR)

Issued by National Weather Service (NWS)

                            
000
ASUS43 KOAX 172010
RWRNE 

WEATHER ROUNDUP FOR NEBRASKA
NATIONAL WEATHER SERVICE OMAHA NE
200 PM CST MON DEC 17 2018

NOTES: SATELLITE DATA IS BEING USED TO AUGMENT CLOUD COVER ABOVE
       12000 FEET.
       "FAIR" INDICATES FEW OR NO CLOUDS BELOW 12,000 FEET WITH NO
       SIGNIFICANT WEATHER AND/OR OBSTRUCTIONS TO VISIBILITY.

   
NEZ001>004-019>022-054>056-172100-
NEBRASKA PANHANDLE
  
CITY           SKY/WX    TMP DP  RH WIND       PRES   REMARKS
SCOTTSBLUFF    PTSUNNY   52  24  33 CALM      29.99F                  
ALLIANCE       PTSUNNY   83  22  10 W8        29.96F                  
CHADRON        SUNNY     56  35  45 CALM      29.93F                  
GORDON         FAIR      52  32  47 SW6       29.94F                  
KIMBALL        MOSUNNY   63  12  14 NW9       30.00F                  
SIDNEY         MOSUNNY   61  15  16 NE6       29.99F                  
$$
 
NEZ057>060-069>072-079>082-172100-
SOUTHWEST NEBRASKA
  
CITY           SKY/WX    TMP DP  RH WIND       PRES   REMARKS
NORTH PLATTE   MOSUNNY   47  29  49 W6        30.03F                  
IMPERIAL       MOSUNNY   52  26  36 S12       30.00F                  
LEXINGTON      FAIR      53  35  49 S10       30.05F                  
MCCOOK         MOSUNNY   53  33  46 S8        30.04F                  
OGALLALA       SUNNY     46  27  46 S7        30.01F                  
$$
 
NEZ005>010-023>029-035>040-094-172100-
NORTH CENTRAL NEBRASKA
  
CITY           SKY/WX    TMP DP  RH WIND       PRES   REMARKS
VALENTINE      SUNNY     55  30  38 S7        29.94F                  
AINSWORTH      SUNNY     42  30  64 S14       29.96F                  
BROKEN BOW     FAIR      48  29  47 S13       30.03F                  
O'NEILL        FAIR      48  32  52 S9        30.00F                  
ORD            FAIR      55  31  39 SW17G26   30.03F                  
THEDFORD       SUNNY     46  30  52 SW9       30.00F                  
$$
 
NEZ041-046>049-061>064-073>077-083>087-172100-
SOUTH CENTRAL NEBRASKA
  
CITY           SKY/WX    TMP DP  RH WIND       PRES   REMARKS
GRAND ISLAND   SUNNY     53  30  41 S18G25    30.10F                  
AURORA         SUNNY     53  31  42 S17G24    30.10F                  
HASTINGS       SUNNY     53  28  38 SW15G24   30.11F                  
HEBRON         SUNNY     52  32  45 S13       30.16F                  
HOLDREGE       SUNNY     51  35  55 S13       30.08F                  
KEARNEY        SUNNY     51  33  50 S16       30.08F                  
YORK           SUNNY     52  32  46 S15       30.12F                  
$$
 
NEZ011>018-030>034-042>045-172100-
NORTHEAST NEBRASKA
  
CITY           SKY/WX    TMP DP  RH WIND       PRES   REMARKS
NORFOLK        SUNNY     50  34  54 S13       30.06F                  
ALBION         SUNNY     55  35  46 S13       30.06F                  
BLAIR          SUNNY     46  33  58 S14       30.14F                  
COLUMBUS       SUNNY     50  34  54 S14       30.11F                  
FREMONT        SUNNY     50  35  55 SE12      30.14F                  
TEKAMAH        SUNNY     41  35  79 SE9       30.14F                  
WAYNE          SUNNY     42  32  67 S12       30.07F                  
$$

NEZ050>053-065>068-078-088>093-172100-
SOUTHEAST NEBRASKA
  
CITY           SKY/WX    TMP DP  RH WIND       PRES   REMARKS
LINCOLN        SUNNY     54  32  43 S16       30.16F                  
OMAHA EPPLEY   SUNNY     44  31  60 S14       30.17F                  
BEATRICE       SUNNY     53  34  48 S15       30.17F                  
FALLS CITY     SUNNY     52  31  44 S8        30.21F                  
NEBRASKA CITY  SUNNY     48  32  55 S10       30.19F                  
PLATTSMOUTH    SUNNY     46  35  65 SE8       30.18F                  
$$

NEZ044-045-051>053-067-172100-
OMAHA AREA
  
CITY           SKY/WX    TMP DP  RH WIND       PRES   REMARKS
OMAHA EPPLEY   SUNNY     44  31  60 S14       30.17F                  
BLAIR          SUNNY     46  33  58 S14       30.14F                  
FREMONT        SUNNY     50  35  55 SE12      30.14F                  
MILLARD        SUNNY     48  35  60 SE10      30.17F                  
OFFUTT AFB     SUNNY     45  41  86 SE10      30.17F                  
PLATTSMOUTH    SUNNY     46  35  65 SE8       30.18F                  
WAHOO          FAIR      50  36  57 S14       30.14F                  
$$